Time,TemperatureF,DewpointF,PressureIn,WindDirection,WindDirectionDegrees,WindSpeedMPH,WindSpeedGustMPH,Humidity,HourlyPrecipIn,Conditions,Clouds,dailyrainin,SoftwareType,DateUTC
2013-04-17 00:03:00,49.8,45.5,29.93,SSW,192,1.0,14.0,85,0.00,,---,0.00,VWS V13.01,2013-04-17 04:03:00,
2013-04-17 01:03:00,49.8,45.5,29.94,SSE,155,2.0,10.0,85,0.00,,---,0.00,VWS V13.01,2013-04-17 05:03:00,
2013-04-17 02:03:00,48.0,44.6,29.97,SSE,148,0.0,6.0,88,0.00,,---,0.00,VWS V13.01,2013-04-17 06:03:00,
2013-04-17 03:03:00,48.5,44.5,29.98,West,260,0.0,5.0,86,0.00,,---,0.00,VWS V13.01,2013-04-17 07:03:00,
2013-04-17 04:03:00,48.2,41.0,30.02,West,280,0.0,9.0,76,0.00,,---,0.00,VWS V13.01,2013-04-17 08:03:00,
2013-04-17 05:03:00,43.5,38.4,30.02,WNW,291,0.0,2.0,82,0.00,,---,0.00,VWS V13.01,2013-04-17 09:03:00,
2013-04-17 06:03:00,43.3,35.9,30.05,WNW,302,0.0,3.0,75,0.00,,---,0.00,VWS V13.01,2013-04-17 10:03:00,
2013-04-17 07:03:00,45.0,35.8,30.07,WNW,296,0.0,1.0,70,0.00,,---,0.00,VWS V13.01,2013-04-17 11:03:00,
2013-04-17 08:03:00,51.4,37.6,30.09,NNW,344,0.0,6.0,59,0.00,,---,0.00,VWS V13.01,2013-04-17 12:03:00,
2013-04-17 09:03:00,54.0,34.2,30.10,WSW,242,0.0,9.0,47,0.00,,---,0.00,VWS V13.01,2013-04-17 13:03:00,
2013-04-17 10:03:00,56.2,32.8,30.12,WNW,298,0.0,10.0,41,0.00,,---,0.00,VWS V13.01,2013-04-17 14:03:00,
2013-04-17 11:03:00,59.4,33.1,30.13,WNW,301,2.0,7.0,37,0.00,,---,0.00,VWS V13.01,2013-04-17 15:03:00,
2013-04-17 12:03:00,60.8,33.0,30.12,WNW,296,0.0,11.0,35,0.00,,---,0.00,VWS V13.01,2013-04-17 16:03:00,
2013-04-17 13:03:00,60.8,33.0,30.12,WNW,291,2.0,7.0,35,0.00,,---,0.00,VWS V13.01,2013-04-17 17:03:00,
2013-04-17 14:03:00,60.8,33.0,30.12,West,280,3.0,14.0,35,0.00,,---,0.00,VWS V13.01,2013-04-17 18:03:00,
2013-04-17 15:03:00,61.3,32.7,30.13,West,261,2.0,11.0,34,0.00,,---,0.00,VWS V13.01,2013-04-17 19:03:00,
2013-04-17 16:03:00,61.2,31.9,30.14,SE,144,2.0,13.0,33,0.00,,---,0.00,VWS V13.01,2013-04-17 20:03:00,
2013-04-17 17:03:00,61.1,30.3,30.17,NNE,33,1.0,12.0,31,0.00,,---,0.00,VWS V13.01,2013-04-17 21:03:00,
2013-04-17 18:03:00,58.2,29.3,30.19,West,260,3.0,12.0,33,0.00,,---,0.00,VWS V13.01,2013-04-17 22:03:00,
2013-04-17 19:03:00,54.3,27.2,30.22,NNW,338,0.0,7.0,35,0.00,,---,0.00,VWS V13.01,2013-04-17 23:03:00,
2013-04-17 20:03:00,48.6,27.1,30.25,SW,234,0.0,3.0,43,0.00,,---,0.00,VWS V13.01,2013-04-18 00:03:00,
2013-04-17 21:03:00,45.1,27.1,30.30,SW,234,0.0,1.0,49,0.00,,---,0.00,VWS V13.01,2013-04-18 01:03:00,
2013-04-17 22:03:00,43.4,27.4,30.31,SW,234,0.0,1.0,53,0.00,,---,0.00,VWS V13.01,2013-04-18 02:03:00,
2013-04-17 23:03:00,38.8,27.7,30.31,SW,234,0.0,2.0,64,0.00,,---,0.00,VWS V13.01,2013-04-18 03:03:00,